OBJECT C, 51948

Orbit data source: Space-Track

You're viewing an Uncataloged Satellite

Recently launched and/or uncataloged satellites may have evolving metadata. Metadata may include but not limited to: Owner, Maufacturer, Bus, Motor, and Mission.

OBJECT C, 51948 is a Chinese satellite in LEO that was launched on Sat, 05 Mar 2022 UTC via a CHANG ZHENG 2C launch vehicle from the Xichang Space Center, China (XSC). Unknown objects in Earth's orbit typically refer to objects detected orbiting the Earth but have not yet been identified or cataloged. These objects could be anything from previously untracked satellites, spent rocket stages, debris from satellite collisions, or even natural meteoroids temporarily captured by Earth's gravity.

Loading next visibility...
Identifier
51948, 2022-023C
Orbit
LEO
Country
Flag of CNCN / PRC
Related business
None
Manufacturer
Unknown
Mission
Operational Commercial Communications
Bus & Motor
Unknown
Mass
Unknown
Launch date (UTC)
2022-03-05 (4 years ago)
Launch vehicle
CHANG ZHENG 2C
Launch site
Xichang Space Center, China (XSC)
Object type
Unknown
Shape & HBR
Box + 1 Pan, 2.5 m
Radar Cross Section
3.313 m², Large (>1 m²)

Expand to show TLE details & history
Last TLE update: 22 hours ago

TLE from 22 hours ago
0 OBJECT C
1 51948U 22023C   26172.51823273  .00007157  00000-0  31461-3 0  9993
2 51948  63.4943 256.5380 0103886 350.4476   9.4659 15.17967507238376
Epoch: 2026-06-21T12:26Z
TLE epoch observation values (Epoch: 2026-06-21T12:26:15.307Z)
Latitude
0.00003°
Longitude
160.25688°
Altitude
443.313 km
Speed
7.686 km/s
True Right ascension
17h 06m 09s
True Declination
0° 00' 00"
Sunlit
Object was in full shadow at epoch
Visualization orbit readout
Latitude
Unknown
Longitude
Unknown
Altitude
Unknown
Speed
Unknown
Apparent Right ascension
Unknown
Apparent Declination
Unknown
Sunlit
N/A
Visualization observer readout
Local Sidereal Time
21:30:58
Azimuth
Unknown
Elevation
Unknown
Doppler factor
Unknown
Orbital elements
Apogee altitude
582.267 km
Perigee altitude
439.137 km
Semi-major axis
6,888.839 km
Eccentricity
0.01039
Inclination
63.4943°
RAAN
256.538°
Arg. of periapsis
350.4476°
True anomaly
9.66422°
Mean anomaly
9.4659°
Eccentric anomaly
9.5648°
Mean motion
3.79598 °/min
Orbital period
94.84 mins
BSTAR
0.00031461
Loading maneuver chart data...
Computing Atmospheric mass density...
Loading historical data...
Loading historical data...
Loading historical data...
Loading historical data...
Loading historical data...
Loading historical data...
Loading historical data...

Documentation

Showing up to 5 results
|